Weather History for West Palm Beach, FL

Change the Weather History Date:

Wednesday, April 2, 2014

  Actual Average Record
Temperature  
Mean Temperature 69 °F 72 °F  
Max Temperature 79 °F 80 °F 91 °F (1949)
Min Temperature 59 °F 64 °F 46 °F (1907)
Degree Days  
Heating Degree Days 0 0  
Month to date heating degree days 0 0  
Since 1 July heating degree days 122 229  
Cooling Degree Days 4 7  
Month to date cooling degree days 7 14  
Year to date cooling degree days 555 442  
Growing Degree Days 20 (Base 50)    
Moisture  
Dew Point 57 °F    
Average Humidity 65    
Maximum Humidity 84    
Minimum Humidity 46    
Precipitation  
Precipitation 0.00 in 0.15 in 2.84 in (1924)
Month to date precipitation 0.00 0.30  
Year to date precipitation 13.88 10.84  
Snow  
Snow 0.00 in - - ()
Month to date snowfall 0.0  
Since 1 July snowfall 0.0  
Snow Depth 0.00 in    
Sea Level Pressure  
Sea Level Pressure 30.16 in    
Wind  
Wind Speed 8 mph (ESE)    
Max Wind Speed 18 mph    
Max Gust Speed 24 mph    
Visibility 10 miles    
Events      
T = Trace of Precipitation, MM = Missing Value Source: NWS Daily Summary

Daily Weather History Graph

Daily Weather History Graph

Search for Another Location

Airport:

Trip Planner

Search our weather history database for the weather conditions in past years. The results will help you decide how hot, cold, wet, or windy it might be!

Date:

Astronomy

Apr. 02, 2014 Rise Set
Actual Time 7:10 AM EDT 7:38 PM EDT
Civil Twilight 6:46 AM EDT 8:01 PM EDT
Nautical Twilight 6:19 AM EDT 8:28 PM EDT
Astronomical Twilight 5:51 AM EDT 8:56 PM EDT
Moon 9:08 AM EDT (4/2) 10:42 PM EDT (4/2)
Length of Visible Light 13h 14m
Length of Day
12h 27m
Waxing Crescent, 10% of the Moon is Illuminated
Apr 2
Waxing Crescent
Apr 7
First Quarter
Apr 15
Full
Apr 22
Last Quarter
Apr 29
New

Hourly Weather History & Observations

Time (EDT) Temp. Dew Point Humidity Pressure Visibility Wind Dir Wind Speed Gust Speed Precip Events Conditions
12:53 AM 66.9 °F 55.9 °F 68% 30.17 in 10.0 mi Calm Calm - N/A   Partly Cloudy
1:53 AM 70.0 °F 55.9 °F 61% 30.15 in 10.0 mi East 5.8 mph - N/A   Clear
2:53 AM 63.0 °F 55.9 °F 78% 30.14 in 10.0 mi Calm Calm - N/A   Clear
3:53 AM 61.0 °F 55.0 °F 81% 30.12 in 10.0 mi Calm Calm - N/A   Clear
4:53 AM 60.1 °F 55.0 °F 83% 30.12 in 10.0 mi Calm Calm - N/A   Partly Cloudy
5:53 AM 60.1 °F 55.9 °F 86% 30.13 in 10.0 mi Calm Calm - N/A   Partly Cloudy
6:53 AM 63.0 °F 55.9 °F 78% 30.16 in 10.0 mi Calm Calm - N/A   Scattered Clouds
8:53 AM 73.0 °F 55.9 °F 55% 30.19 in 10.0 mi ESE 9.2 mph - N/A   Partly Cloudy
9:53 AM 75.0 °F 55.0 °F 50% 30.19 in 10.0 mi ESE 12.7 mph - N/A   Partly Cloudy
10:53 AM 75.9 °F 55.0 °F 48% 30.19 in 10.0 mi ESE 11.5 mph - N/A   Partly Cloudy
11:53 AM 75.9 °F 53.1 °F 45% 30.19 in 10.0 mi ESE 12.7 mph - N/A   Partly Cloudy
12:53 PM 77.0 °F 57.9 °F 52% 30.18 in 10.0 mi ESE 11.5 mph - N/A   Partly Cloudy
1:53 PM 77.0 °F 57.0 °F 50% 30.17 in 10.0 mi ESE 11.5 mph - N/A   Partly Cloudy
2:53 PM 78.1 °F 57.0 °F 48% 30.16 in 10.0 mi ESE 11.5 mph - N/A   Partly Cloudy
3:53 PM 77.0 °F 57.9 °F 52% 30.14 in 10.0 mi East 15.0 mph - N/A   Partly Cloudy
4:53 PM 77.0 °F 55.9 °F 48% 30.14 in 10.0 mi SSE 10.4 mph 17.3 mph N/A   Partly Cloudy
5:53 PM 75.9 °F 57.9 °F 54% 30.14 in 10.0 mi ESE 11.5 mph - N/A   Partly Cloudy
6:53 PM 75.0 °F 57.0 °F 53% 30.14 in 10.0 mi ESE 12.7 mph - N/A   Partly Cloudy
7:53 PM 73.0 °F 57.9 °F 59% 30.14 in 10.0 mi ESE 10.4 mph - N/A   Partly Cloudy
8:53 PM 73.0 °F 57.9 °F 59% 30.15 in 10.0 mi ESE 9.2 mph - N/A   Scattered Clouds
9:53 PM 73.0 °F 59.0 °F 61% 30.16 in 10.0 mi ESE 9.2 mph - N/A   Partly Cloudy
10:53 PM 72.0 °F 57.9 °F 61% 30.17 in 10.0 mi ESE 8.1 mph - N/A   Partly Cloudy
11:53 PM 72.0 °F 57.9 °F 61% 30.17 in 10.0 mi ESE 8.1 mph - N/A   Partly Cloudy